Location: Oshawa
(43.9000°N, 78.8670°W)
Time: 08:38:07
(UTC-04:00)

Cosmos 839 Rocket - Visible Passes

Search period start: 30 May 2016 00:00
Search period end: 09 June 2016 00:00
Orbit: 957 x 2095 km, 65.9° (Epoch: 28 May)

Date Brightness Start Highest point End Pass type
(mag) Time Alt. Az. Time Alt. Az. Time Alt. Az.
30 May 6.6 22:50:11 10° NW 22:56:05 19° W 23:01:17 10° SW visible
31 May 6.4 22:07:01 10° NW 22:14:52 29° W 22:21:24 10° SSW visible
01 Jun 5.9 21:24:22 10° NW 21:33:29 43° WSW 21:40:45 10° S visible
02 Jun 7.1 22:47:35 10° WNW 22:49:31 11° W 22:51:22 10° WSW visible
03 Jun 6.7 22:02:33 10° NW 22:08:27 19° W 22:13:37 10° SW visible
04 Jun 6.5 21:19:24 10° NW 21:27:14 29° W 21:33:43 10° SSW visible
06 Jun 7.2 21:59:51 10° WNW 22:01:53 11° W 22:03:48 10° WSW visible
